Regional Weather Roundup
Issued by NWS Jackson, KY

Home | Current Version | Previous Version | Graphics & Text | Print | Product List | Glossary On
Versions: 1 2 3 4 5 6 7 8 9 10 11 12 13 14 15 16 17 18 19 20 21 22 23 24 25 26 27
000
ASUS43 KJKL 180010
RWRJKL

EAST KENTUCKY HOURLY WEATHER ROUNDUP
NATIONAL WEATHER SERVICE JACKSON KY
800 PM EDT THU AUG 17 2017

NOTE: "FAIR" INDICATES FEW OR NO CLOUDS BELOW 12,000 FEET WITH
NO SIGNIFICANT WEATHER AND/OR OBSTRUCTIONS TO VISIBILITY.

* THESE REPORTS ARE NOT UNDER NWS QUALITY CONTROL AND MAY NOT
  REPORT WEATHER SUCH AS PRECIPITATION AND FOG.

KYZ079-080-083-085-087-088-110-112-115-119-120-180100
...EASTERN KENTUCKY...

CITY           SKY/WX    TMP DP  RH WIND       PRES   REMARKS
JACKSON        CLEAR     82  72  71 CALM      29.96R
6HR MIN TEMP:  82; 6HR MAX TEMP:  89;

LONDON         CLEAR     84  69  60 SW7       29.97R
6HR MIN TEMP:  84; 6HR MAX TEMP:  90;

SOMERSET*      PTCLDY    82  68  61 SW5       29.96S
MONTICELLO*    CLEAR     82  73  74 W12       29.98R
6HR MIN TEMP:  82; 6HR MAX TEMP:  89;

WILLIAMSBURG*  CLEAR     82  72  69 SW3       29.98R
MIDDLESBORO*   CLEAR     83  74  74 SW3       29.99R HX  90
6HR MIN TEMP:  82; 6HR MAX TEMP:  88;

HARLAN APT*    PTCLDY    79  72  78 CALM      30.00S
PIKE CO APT*     N/A     82  74  77 CALM      29.97S
BIG SANDY APT* PTCLDY    85  75  73 S3        29.95S HX  94
6HR MIN TEMP:  85; 6HR MAX TEMP:  89;

MOREHEAD APT*  CLEAR     82  72  69 SW8       29.92R
$$

KYZ035-036-041-042-044-050-067-078-099-180100
...CENTRAL KENTUCKY...

CITY           SKY/WX    TMP DP  RH WIND       PRES   REMARKS
MT STERLING*   CLEAR     82  72  69 W8        29.93R
FLEMING/MASON* MOCLDY    77  74  88 CALM      29.90S
DANVILLE*      CLEAR     82  70  65 SW6       29.95R
LEXINGTON      CLEAR     83  69  62 SW10      29.92R
6HR MIN TEMP:  83; 6HR MAX TEMP:  90;

FRANKFORT      HVY RAIN  74  70  87 W10G43    29.92R SQUALL  VSB 1
6HR MIN TEMP:  83; 6HR MAX TEMP:  92; 6HR PCP:  0.03;

LOUISVILLE     MOCLDY    76  73  91 SE6       29.88S
6HR MIN TEMP:  74; 6HR MAX TEMP:  96; 6HR PCP:  2.56;

LEBANON*       LGT RAIN  81  73  78 SW15      29.95R
GLASGOW*       PTCLDY    83  71  67 SW6       29.92S
BOWLING GREEN  CLOUDY    85  75  72 SW9       29.91R HX  93
6HR MIN TEMP:  85; 6HR MAX TEMP:  90;

$$

KYZ091>093-OHZ055-061-077-WVZ005-015-034-035-042-180100
...SOUTHERN OHIO/WEST VIRGINIA...

CITY           SKY/WX    TMP DP  RH WIND       PRES   REMARKS
COVINGTON      CLOUDY    78  76  93 S9        29.87S
COLUMBUS       CLOUDY    75  71  87 S7        29.84F
DAYTON         CLOUDY    79  74  84 SW9       29.85S
WILMINGTON     MOCLDY    76  74  93 W8        29.87R
HUNTINGTON     CLEAR     85  73  67 S7        29.88F HX  91
CHARLESTON     PTCLDY    84  72  67 S7        29.92S
PINEVILLE*     MOCLDY    78  73  85 MISG      30.04R
BECKLEY        MOCLDY    78  68  71 VRB6      30.04R
BLUEFIELD      PTCLDY    76  66  71 SW3       30.08R
LOGAN CO APT*    N/A     81  73  78 CALM      29.97S
$$

VAZ002-007-008-TNZ017-027-036-066-071-180100
...SOUTHWEST VIRGINIA/EAST TENNESSEE...

CITY           SKY/WX    TMP DP  RH WIND       PRES   REMARKS
WISE*          PTCLDY    77  68  73 SW5       30.09R
JONESVILLE*      N/A     82  73  74 S5        30.02R
ABINGDON*      CLOUDY    79  72  77 CALM      30.06R
BRISTOL        PTCLDY    82  70  66 W6        30.01R
MORRISTOWN*    CLEAR     82  73  74 SW7       29.99S
SEVIERVILLE*   CLEAR     84  70  61 W5        29.98S
KNOXVILLE      CLOUDY    82  72  71 SW7       29.98R
LAFOLLETTE*    MOCLDY    82  75  78 S3        30.01R
CROSSVILLE     CLEAR     79  69  71 SW5       30.04S
NASHVILLE      MOCLDY    85  72  65 SW6       29.94S HX  91
$$

...KEY TO REMARKS...
VSB - VISIBILITY IN MILES
WCI - WIND CHILL INDEX
HX  - HEAT INDEX

$$




USA.gov is the U.S. government's official web portal to all federal, state and local government web resources and services.